Chehalis, WA
on Friday, January 4, 2013

Friday
Previous Day Next Day
Daily Summary
 ActualAverage (KOLM)Record (KOLM)
Temperature
Mean Temperature °F 39°F  
Max Temperature 48°F 44°F 61°F (1984)
Min Temperature 39°F 33°F 9°F (1959)
Degree Days
Heating Degree Days 22 26  
Month to date heating degree days 104  
Since 1 July heating degree days 2374  
Cooling Degree Days 0 0  
Month to date cooling degree days 0  
Year to date cooling degree days 0  
Moisture
Dew Point 40°F   
Average Humidity 90    
Maximum Humidity 100    
Minimum Humidity 76    
Precipitation
Precipitation 0.00 in 0.26 in 1.58 in (1954)
Month to date precipitation 1.01  
Year to date precipitation 1.01  
Wind
Wind Speed 6 mph   
Max Wind Speed 13 mph   
Max Gust Speed 18 mph   
Visibility 7 miles   
Events Fog   

Key: T is trace of precipitation, MM is missing value
Source: NWS Daily Summary
Time(PST)TemperatureDew PointHumidity Pressure Visibility Wind DirectionWind SpeedGust SpeedPrecipitationEvents Conditions
12:35 AM 41.0°F 37.4°F 87% 30.21 in 8.0 miles SSW 11.5 mph - N/A   Overcast
12:55 AM 41.0°F 37.4°F 87% 30.21 in 10.0 miles SSW 12.7 mph - N/A   Overcast
1:15 AM 41.0°F 37.4°F 87% 30.22 in 10.0 miles South 10.4 mph 18.4 mph N/A   Mostly Cloudy
3:55 AM 41.0°F 37.4°F 87% 30.26 in 10.0 miles South 10.4 mph 17.3 mph N/A   Mostly Cloudy
4:15 AM 41.0°F 37.4°F 87% 30.27 in 10.0 miles South 10.4 mph 16.1 mph N/A   Overcast
4:35 AM 41.0°F 37.4°F 87% 30.27 in 10.0 miles South 12.7 mph 18.4 mph N/A   Mostly Cloudy
5:15 AM 39.2°F 37.4°F 93% 30.27 in 9.0 miles SSW 8.1 mph - N/A   Mostly Cloudy
5:35 AM 39.2°F 37.4°F 93% 30.28 in 10.0 miles SSW 6.9 mph - N/A   Overcast
5:55 AM 39.2°F 37.4°F 93% 30.29 in 10.0 miles South 4.6 mph - N/A   Overcast
6:15 AM 39.2°F 37.4°F 93% 30.29 in 10.0 miles SSW 6.9 mph - N/A   Overcast
6:35 AM 39.2°F 37.4°F 93% 30.29 in 10.0 miles South 8.1 mph - N/A   Overcast
6:55 AM 39.2°F 37.4°F 93% 30.30 in 10.0 miles South 6.9 mph - N/A   Overcast
7:15 AM 41.0°F 37.4°F 87% 30.30 in 10.0 miles SSW 5.8 mph - N/A   Overcast
7:35 AM 41.0°F 37.4°F 87% 30.31 in 10.0 miles South 3.5 mph - N/A   Overcast
7:55 AM 41.0°F 39.2°F 93% 30.31 in 10.0 miles South 4.6 mph - N/A   Overcast
8:15 AM 41.0°F 39.2°F 93% 30.32 in 10.0 miles South 4.6 mph - N/A   Overcast
8:35 AM 41.0°F 39.2°F 93% 30.33 in 8.0 miles SSW 3.5 mph - N/A   Overcast
8:55 AM 41.0°F 39.2°F 93% 30.34 in 5.0 miles SSW 4.6 mph - N/A   Overcast
9:15 AM 42.8°F 39.2°F 87% 30.34 in 5.0 miles South 6.9 mph - N/A   Overcast
9:35 AM 42.8°F 39.2°F 87% 30.34 in 5.0 miles South 5.8 mph - N/A   Overcast
9:55 AM 44.6°F 39.2°F 81% 30.34 in 5.0 miles South 5.8 mph - N/A   Overcast
10:15 AM 44.6°F 39.2°F 81% 30.35 in 5.0 miles South 5.8 mph - N/A   Overcast
10:35 AM 44.6°F 41.0°F 87% 30.34 in 10.0 miles South 6.9 mph - N/A   Overcast
10:55 AM 46.4°F 41.0°F 81% 30.33 in 10.0 miles SSE 8.1 mph - N/A   Mostly Cloudy
11:15 AM 46.4°F 41.0°F 81% 30.32 in 10.0 miles SSE 6.9 mph - N/A   Partly Cloudy
11:35 AM 46.4°F 41.0°F 81% 30.32 in 10.0 miles SSE 9.2 mph - N/A   Mostly Cloudy
11:55 AM 44.6°F 41.0°F 87% 30.31 in 10.0 miles SSE 9.2 mph - N/A   Mostly Cloudy
12:15 PM 44.6°F 41.0°F 87% 30.31 in 5.0 miles South 6.9 mph - N/A   Mostly Cloudy
12:35 PM 44.6°F 41.0°F 87% 30.30 in 5.0 miles SSE 5.8 mph - N/A   Overcast
12:55 PM 46.4°F 41.0°F 81% 30.29 in 5.0 miles SSE 4.6 mph - N/A   Haze
1:15 PM 46.4°F 41.0°F 81% 30.28 in 5.0 miles South 4.6 mph - N/A   Scattered Clouds
1:35 PM 46.4°F 41.0°F 81% 30.27 in 6.0 miles South 4.6 mph - N/A   Haze
1:55 PM 48.2°F 41.0°F 76% 30.26 in 6.0 miles Calm Calm - N/A   Haze
2:15 PM 48.2°F 41.0°F 76% 30.26 in 9.0 miles Calm Calm - N/A   Clear
2:55 PM 46.4°F 41.0°F 81% 30.25 in 10.0 miles Calm Calm - N/A   Clear
3:35 PM 46.4°F 41.0°F 81% 30.24 in 10.0 miles Calm Calm - N/A   Scattered Clouds
3:55 PM 46.4°F 41.0°F 81% 30.24 in 10.0 miles Calm Calm - N/A   Overcast
4:15 PM 46.4°F 41.0°F 81% 30.24 in 10.0 miles North 3.5 mph - N/A   Mostly Cloudy
4:35 PM 44.6°F 41.0°F 87% 30.24 in 10.0 miles Calm Calm - N/A   Mostly Cloudy
5:15 PM 42.8°F 41.0°F 93% 30.23 in 10.0 miles Calm Calm - N/A   Mostly Cloudy
5:35 PM 41.0°F 41.0°F 100% 30.23 in 10.0 miles Calm Calm - N/A   Overcast
5:55 PM 41.0°F 41.0°F 100% 30.22 in 10.0 miles Calm Calm - N/A   Mostly Cloudy
6:15 PM 41.0°F 41.0°F 100% 30.22 in 10.0 miles Calm Calm - N/A   Overcast
6:35 PM 41.0°F 39.2°F 93% 30.21 in 10.0 miles Calm Calm - N/A   Mostly Cloudy
6:55 PM 41.0°F 39.2°F 93% 30.21 in 10.0 miles Calm Calm - N/A   Scattered Clouds
7:15 PM 41.0°F 39.2°F 93% 30.21 in 10.0 miles Calm Calm - N/A   Mostly Cloudy
7:35 PM 41.0°F 39.2°F 93% 30.21 in 10.0 miles SW 3.5 mph - N/A   Mostly Cloudy
7:55 PM 41.0°F 41.0°F 100% 30.20 in 4.0 miles Calm Calm - N/A   Overcast
8:15 PM 41.0°F 41.0°F 100% 30.20 in 3.0 miles SSW 3.5 mph - N/A   Overcast
8:35 PM 41.0°F 41.0°F 100% 30.20 in 2.5 miles Calm Calm - N/A   Overcast
8:55 PM 41.0°F 41.0°F 100% 30.19 in 0.8 miles SW 3.5 mph - N/A   Overcast
9:15 PM 41.0°F 41.0°F 100% 30.19 in 0.5 miles Calm Calm - N/A Fog Fog
9:35 PM 41.0°F 41.0°F 100% 30.19 in 0.5 miles Calm Calm - N/A Fog Fog
9:55 PM 41.0°F 41.0°F 100% 30.19 in 0.5 miles Calm Calm - N/A Fog Fog
10:15 PM 41.0°F 39.2°F 93% 30.19 in 0.5 miles Calm Calm - N/A Fog Fog
10:35 PM 39.2°F 39.2°F 100% 30.19 in 0.5 miles Calm Calm - N/A Fog Fog
10:55 PM 41.0°F 39.2°F 93% 30.20 in 0.8 miles SW 3.5 mph - N/A   Overcast
11:15 PM 41.0°F 39.2°F 93% 30.19 in 0.5 miles South 3.5 mph - N/A Fog Fog
11:35 PM 41.0°F 41.0°F 100% 30.19 in 2.0 miles SSE 4.6 mph - N/A   Overcast
11:55 PM 41.0°F 41.0°F 100% 30.19 in 3.0 miles South 5.8 mph - N/A   Overcast
Moon Phase
Jan. 04 Jan. 04 Jan. 11 Jan. 18 Jan. 26
Sunrise:07:56 AM (PST) Moon Rise:No Moon Rise/
Sunset:04:38 PM (PST) Moon Set:11:13 AM (PST)1/4

Copyright © 2014 The Weather Underground, Inc.